Location: Rock River
(41.7433°N, 105.9768°W)
Time: 06:04:53
(UTC+00:00)

Vanguard 1 - Pass Details

Date: 02 June 2022
Orbit: 649 x 3833 km, 34.2° (Epoch: 04 July)

Event Time Altitude Azimuth Distance (km) Brightness Sun altitude
Rises 09:23:28 0° 266° (W) 5,297 13.5 -18.2°
Reaches altitude 10° 09:26:20 10° 264° (W) 4,631 13.1 -17.8°
Maximum altitude 09:40:27 66° 186° (S) 3,291 12.4 -16.3°
Drops below altitude 10° 10:02:55 10° 111° (ESE) 6,931 14.6 -13.6°
Sets 10:08:26 0° 109° (ESE) 7,951 15.0 -12.9°
